Regional Weather Roundup
Issued by NWS Sioux Falls, SD

Home | Current Version | Previous Version | Graphics & Text | Print | Product List | Glossary Off
Versions: 1 2 3 4 5 6 7 8 9 10 11 12 13 14 15 16 17 18 19 20 21 22 23 24 25 26 27 28 29 30 31 32 33 34 35 36 37 38 39 40 41 42 43 44 45 46 47 48 49 50

000
ASUS43 KFSD 200302
RWRFSD

WEATHER ROUNDUP FOR SE SOUTH DAKOTA/SW MINNESOTA/NW IOWA
NATIONAL WEATHER SERVICE SIOUX FALLS SD
1000 PM CDT TUE AUG 19 2014

NOTE: "FAIR" INDICATES FEW OR NO CLOUDS BELOW 12,000 FEET WITH NO
SIGNIFICANT WEATHER AND OR OBSTRUCTIONS TO VISIBILITY.


SDZ038>040-050-052>070-200400-
SOUTHEAST SOUTH DAKOTA

CITY           SKY/WX    TMP DP  RH WIND       PRES   REMARKS
CHAMBERLAIN    MOCLDY    71  64  79 SE7       29.76S
HURON          PTCLDY    74  61  63 SE10      29.77R
MADISON        FAIR      68  68 100 S3        29.83R
MITCHELL       PTCLDY    70  65  84 SE6       29.79R
SIOUX FALLS    PTCLDY    74  63  68 CALM      29.82R
WINNER         FAIR      75  65  70 SE10      29.77R
YANKTON        PTCLDY    72  64  78 E5        29.80R
$$

MNZ071-072-080-081-089-090-097-098-200400-
SOUTHWEST MINNESOTA

CITY           SKY/WX    TMP DP  RH WIND       PRES   REMARKS
FAIRMONT       CLEAR     70  63  78 CALM      29.81S
JACKSON        CLEAR     68  63  83 CALM      29.84R
LUVERNE        CLEAR     70  64  83 CALM      29.84R
MARSHALL       CLEAR     70  64  83 CALM      29.80R
MONTEVIDEO     CLEAR     70  64  83 CALM      29.80R
PIPESTONE      CLEAR     70  64  83 SW3       29.84R
REDWOOD FALLS  CLEAR     73  65  75 N3        29.79R
TRACY          CLEAR     71  65  81 CALM      29.82R
WINDOM         CLEAR     70  64  83 CALM      29.82R
WORTHINGTON    CLEAR     68  10  10 SW3       29.84R
$$

IAZ001>003-012>014-020>022-031-032-NEZ013-014-SDZ071-200400-
NORTHWEST IOWA

CITY           SKY/WX    TMP DP  RH WIND       PRES   REMARKS
CHEROKEE       CLEAR     66  64  91 CALM      29.83R
DENISON        CLEAR     70  68  94 E3        29.81R
ESTHERVILLE    CLEAR     67  64  90 CALM      29.82R
LE MARS        PTCLDY    70  66  88 CALM      29.83R
ORANGE CITY    CLEAR     73  63  68 CALM      29.84R
SHELDON        CLEAR     64  64 100 CALM      29.83R
SIOUX CITY     PTCLDY    74  66  76 E5        29.80R
SPENCER        CLEAR     67  64  90 SW6       29.83R
STORM LAKE     CLEAR     70  66  88 SW3       29.84R
$$

ABBREVIATIONS USED IN REMARKS
   TC - TEMPERATURE IN CELSIUS
  WCI - WIND CHILL INDEX
   HX - HEAT INDEX
  VSB - VISIBILITY




USA.gov is the U.S. government's official web portal to all federal, state and local government web resources and services.